Time,TemperatureF,DewpointF,PressureIn,WindDirection,WindDirectionDegrees,WindSpeedMPH,WindSpeedGustMPH,Humidity,HourlyPrecipIn,Conditions,Clouds,dailyrainin,SoftwareType,DateUTC
2015-06-02 00:02:00,52.2,48.4,29.99,NE,41,0.0,0.0,87,0.00,,,0.00,meteobridge,2015-06-02 07:02:00,
2015-06-02 00:08:00,52.2,48.4,29.99,NE,41,0.0,0.0,87,0.00,,,0.00,meteobridge,2015-06-02 07:08:00,
2015-06-02 00:13:00,52.2,48.4,29.99,NE,41,0.0,0.0,87,0.00,,,0.00,meteobridge,2015-06-02 07:13:00,
2015-06-02 00:18:00,52.0,48.2,29.99,NE,41,0.0,0.0,87,0.00,,,0.00,meteobridge,2015-06-02 07:18:00,
2015-06-02 00:23:00,52.0,48.2,29.99,NE,41,0.0,0.0,87,0.00,,,0.00,meteobridge,2015-06-02 07:23:00,
2015-06-02 00:28:00,52.0,48.2,29.99,NE,41,0.0,0.0,87,0.00,,,0.00,meteobridge,2015-06-02 07:28:00,
2015-06-02 00:33:00,52.0,48.2,29.99,NE,41,0.0,0.0,87,0.00,,,0.00,meteobridge,2015-06-02 07:33:00,
2015-06-02 00:38:00,52.0,48.2,29.99,NE,41,0.0,1.0,87,0.00,,,0.00,meteobridge,2015-06-02 07:38:00,
2015-06-02 00:43:00,51.8,48.0,29.99,NE,41,0.0,0.0,87,0.00,,,0.00,meteobridge,2015-06-02 07:43:00,
2015-06-02 00:48:00,51.8,48.0,29.99,NE,41,0.0,0.0,87,0.00,,,0.00,meteobridge,2015-06-02 07:48:00,
2015-06-02 00:53:00,51.6,48.2,29.98,NE,41,0.0,0.0,88,0.00,,,0.00,meteobridge,2015-06-02 07:53:00,
2015-06-02 00:58:00,51.6,48.2,29.98,NE,41,0.0,0.0,88,0.00,,,0.00,meteobridge,2015-06-02 07:58:00,
2015-06-02 01:03:00,51.6,48.2,29.98,NE,41,0.0,0.0,88,0.00,,,0.00,meteobridge,2015-06-02 08:03:00,
2015-06-02 01:08:00,51.4,48.0,29.98,NE,42,0.0,0.0,88,0.00,,,0.00,meteobridge,2015-06-02 08:08:00,
2015-06-02 01:18:00,51.3,47.8,29.98,NE,41,0.0,0.0,88,0.00,,,0.00,meteobridge,2015-06-02 08:18:00,
2015-06-02 01:23:00,51.3,47.8,29.98,NE,41,0.0,0.0,88,0.00,,,0.00,meteobridge,2015-06-02 08:23:00,
2015-06-02 01:28:00,51.3,47.8,29.98,NE,41,0.0,0.0,88,0.00,,,0.00,meteobridge,2015-06-02 08:28:00,
2015-06-02 01:33:00,51.3,48.2,29.98,NE,42,0.0,0.0,89,0.00,,,0.00,meteobridge,2015-06-02 08:33:00,
2015-06-02 01:43:00,51.1,48.0,29.98,NE,41,0.0,0.0,89,0.00,,,0.00,meteobridge,2015-06-02 08:43:00,
2015-06-02 01:48:00,50.9,47.8,29.98,NE,41,0.0,0.0,89,0.00,,,0.00,meteobridge,2015-06-02 08:48:00,
2015-06-02 01:54:00,50.7,47.7,29.98,NE,41,0.0,0.0,89,0.00,,,0.00,meteobridge,2015-06-02 08:54:00,
2015-06-02 01:59:00,50.5,47.5,29.98,NE,41,0.0,0.0,89,0.00,,,0.00,meteobridge,2015-06-02 08:59:00,
2015-06-02 02:04:00,50.5,47.5,29.98,NE,41,0.0,0.0,89,0.00,,,0.00,meteobridge,2015-06-02 09:04:00,
2015-06-02 02:09:00,50.5,47.7,29.98,NE,41,0.0,0.0,90,0.00,,,0.00,meteobridge,2015-06-02 09:09:00,
2015-06-02 02:14:00,50.4,47.3,29.98,NE,41,0.0,0.0,89,0.00,,,0.00,meteobridge,2015-06-02 09:14:00,
2015-06-02 02:19:00,50.4,47.5,29.98,NE,41,0.0,0.0,90,0.00,,,0.00,meteobridge,2015-06-02 09:19:00,
2015-06-02 02:24:00,50.2,47.3,29.98,NE,41,0.0,0.0,90,0.00,,,0.00,meteobridge,2015-06-02 09:24:00,
2015-06-02 02:29:00,50.2,47.3,29.98,NE,41,0.0,0.0,90,0.00,,,0.00,meteobridge,2015-06-02 09:29:00,
2015-06-02 02:34:00,50.0,47.1,29.98,NE,41,0.0,0.0,90,0.00,,,0.00,meteobridge,2015-06-02 09:34:00,
2015-06-02 02:39:00,49.8,46.9,29.98,NE,41,0.0,0.0,90,0.00,,,0.00,meteobridge,2015-06-02 09:39:00,
2015-06-02 02:44:00,49.8,47.3,29.97,NE,41,0.0,0.0,91,0.00,,,0.00,meteobridge,2015-06-02 09:44:00,
2015-06-02 02:49:00,49.6,47.1,29.98,NE,41,0.0,1.0,91,0.00,,,0.00,meteobridge,2015-06-02 09:49:00,
2015-06-02 02:54:00,49.6,47.1,29.98,NE,41,0.0,0.0,91,0.00,,,0.00,meteobridge,2015-06-02 09:54:00,
2015-06-02 02:59:00,49.6,47.1,29.98,NE,41,0.0,0.0,91,0.00,,,0.00,meteobridge,2015-06-02 09:59:00,
2015-06-02 03:04:00,49.6,47.1,29.98,NE,41,0.0,0.0,91,0.00,,,0.00,meteobridge,2015-06-02 10:04:00,
2015-06-02 03:09:00,49.6,47.1,29.97,NE,41,0.0,0.0,91,0.00,,,0.00,meteobridge,2015-06-02 10:09:00,
2015-06-02 03:14:00,49.6,47.1,29.97,NE,41,0.0,0.0,91,0.00,,,0.00,meteobridge,2015-06-02 10:14:00,
2015-06-02 03:19:00,49.6,47.1,29.97,NE,41,0.0,0.0,91,0.00,,,0.00,meteobridge,2015-06-02 10:19:00,
2015-06-02 03:24:00,49.5,46.9,29.97,NE,41,0.0,0.0,91,0.00,,,0.00,meteobridge,2015-06-02 10:24:00,
2015-06-02 03:29:00,49.5,46.9,29.97,NE,41,0.0,0.0,91,0.00,,,0.00,meteobridge,2015-06-02 10:29:00,
2015-06-02 03:34:00,49.5,46.9,29.97,NE,41,0.0,0.0,91,0.00,,,0.00,meteobridge,2015-06-02 10:34:00,
2015-06-02 03:39:00,49.5,47.3,29.97,NE,41,0.0,0.0,92,0.00,,,0.00,meteobridge,2015-06-02 10:39:00,
2015-06-02 03:44:00,49.5,46.9,29.96,NE,41,0.0,0.0,91,0.00,,,0.00,meteobridge,2015-06-02 10:44:00,
2015-06-02 03:49:00,49.5,46.9,29.96,NE,41,0.0,0.0,91,0.00,,,0.00,meteobridge,2015-06-02 10:49:00,
2015-06-02 03:54:00,49.5,47.3,29.96,NE,41,0.0,0.0,92,0.00,,,0.00,meteobridge,2015-06-02 10:54:00,
2015-06-02 03:59:00,49.5,47.3,29.96,NE,41,0.0,0.0,92,0.00,,,0.00,meteobridge,2015-06-02 10:59:00,
2015-06-02 04:04:00,49.5,47.3,29.96,NE,41,0.0,0.0,92,0.00,,,0.00,meteobridge,2015-06-02 11:04:00,
2015-06-02 04:09:00,49.5,47.3,29.96,NE,41,0.0,0.0,92,0.00,,,0.00,meteobridge,2015-06-02 11:09:00,
2015-06-02 04:19:00,49.5,47.3,29.97,NE,41,0.0,1.0,92,0.00,,,0.00,meteobridge,2015-06-02 11:19:00,
2015-06-02 04:29:00,49.3,47.1,29.97,NE,41,0.0,0.0,92,0.00,,,0.00,meteobridge,2015-06-02 11:29:00,
2015-06-02 04:34:00,49.5,47.3,29.97,NE,41,0.0,0.0,92,0.00,,,0.00,meteobridge,2015-06-02 11:34:00,
2015-06-02 04:39:00,49.3,47.1,29.97,NE,42,0.0,0.0,92,0.00,,,0.00,meteobridge,2015-06-02 11:39:00,
2015-06-02 04:44:00,49.3,47.1,29.97,NE,41,0.0,0.0,92,0.00,,,0.00,meteobridge,2015-06-02 11:44:00,
2015-06-02 04:49:00,49.3,47.1,29.97,NE,41,0.0,0.0,92,0.00,,,0.00,meteobridge,2015-06-02 11:49:00,
2015-06-02 04:54:00,49.3,47.1,29.97,NE,41,0.0,1.0,92,0.00,,,0.00,meteobridge,2015-06-02 11:54:00,
2015-06-02 04:59:00,49.3,47.1,29.97,NE,41,0.0,0.0,92,0.00,,,0.00,meteobridge,2015-06-02 11:59:00,
2015-06-02 05:04:00,49.3,47.1,29.97,NE,41,0.0,0.0,92,0.00,,,0.00,meteobridge,2015-06-02 12:04:00,
2015-06-02 05:09:00,49.3,47.1,29.97,NE,41,0.0,0.0,92,0.00,,,0.00,meteobridge,2015-06-02 12:09:00,
2015-06-02 05:15:00,49.3,46.8,29.97,NE,41,0.0,0.0,91,0.00,,,0.00,meteobridge,2015-06-02 12:15:00,
2015-06-02 05:20:00,49.3,46.8,29.97,NE,41,0.0,0.0,91,0.00,,,0.00,meteobridge,2015-06-02 12:20:00,
2015-06-02 05:25:00,49.3,46.4,29.97,NE,41,0.0,0.0,90,0.00,,,0.00,meteobridge,2015-06-02 12:25:00,
2015-06-02 05:30:00,49.3,46.4,29.97,NE,42,0.0,0.0,90,0.00,,,0.00,meteobridge,2015-06-02 12:30:00,
2015-06-02 05:35:00,49.3,46.4,29.97,NE,41,0.0,0.0,90,0.00,,,0.00,meteobridge,2015-06-02 12:35:00,
2015-06-02 05:40:00,49.3,46.4,29.97,NE,41,0.0,0.0,90,0.00,,,0.00,meteobridge,2015-06-02 12:40:00,
2015-06-02 05:45:00,49.3,46.4,29.97,NE,41,0.0,0.0,90,0.00,,,0.00,meteobridge,2015-06-02 12:45:00,
2015-06-02 05:50:00,49.1,46.2,29.97,NE,41,0.0,0.0,90,0.00,,,0.00,meteobridge,2015-06-02 12:50:00,
2015-06-02 05:55:00,48.9,45.9,29.98,NE,41,0.0,0.0,89,0.00,,,0.00,meteobridge,2015-06-02 12:55:00,
2015-06-02 06:00:00,48.9,45.9,29.98,NE,41,0.0,0.0,89,0.00,,,0.00,meteobridge,2015-06-02 13:00:00,
2015-06-02 06:05:00,48.9,45.9,29.98,NE,41,0.0,0.0,89,0.00,,,0.00,meteobridge,2015-06-02 13:05:00,
2015-06-02 06:10:00,48.9,45.9,29.98,NE,41,0.0,0.0,89,0.00,,,0.00,meteobridge,2015-06-02 13:10:00,
2015-06-02 06:15:00,48.9,45.9,29.98,NE,41,0.0,1.0,89,0.00,,,0.00,meteobridge,2015-06-02 13:15:00,
2015-06-02 06:20:00,48.9,45.5,29.98,NE,41,0.0,0.0,88,0.00,,,0.00,meteobridge,2015-06-02 13:20:00,
2015-06-02 06:25:00,48.9,45.9,29.98,NE,41,0.0,1.0,89,0.00,,,0.00,meteobridge,2015-06-02 13:25:00,
2015-06-02 06:30:00,48.9,45.5,29.98,NE,42,0.0,1.0,88,0.00,,,0.00,meteobridge,2015-06-02 13:30:00,
2015-06-02 06:35:00,48.9,45.5,29.98,NE,41,0.0,0.0,88,0.00,,,0.00,meteobridge,2015-06-02 13:35:00,
2015-06-02 06:40:00,48.9,45.5,29.97,NE,42,0.0,0.0,88,0.00,,,0.00,meteobridge,2015-06-02 13:40:00,
2015-06-02 06:45:00,48.9,45.5,29.98,NE,41,0.0,0.0,88,0.00,,,0.00,meteobridge,2015-06-02 13:45:00,
2015-06-02 06:50:00,49.1,45.7,29.98,NE,41,0.0,0.0,88,0.00,,,0.00,meteobridge,2015-06-02 13:50:00,
2015-06-02 06:56:00,49.3,45.9,29.98,NE,42,0.0,0.0,88,0.00,,,0.00,meteobridge,2015-06-02 13:56:00,
2015-06-02 07:01:00,49.3,45.9,29.98,NE,41,0.0,0.0,88,0.00,,,0.00,meteobridge,2015-06-02 14:01:00,
2015-06-02 07:06:00,49.5,46.4,29.97,NE,41,0.0,0.0,89,0.00,,,0.00,meteobridge,2015-06-02 14:06:00,
2015-06-02 07:11:00,49.6,46.6,29.97,NE,41,0.0,0.0,89,0.00,,,0.00,meteobridge,2015-06-02 14:11:00,
2015-06-02 07:16:00,49.8,46.4,29.97,NE,42,0.0,0.0,88,0.00,,,0.00,meteobridge,2015-06-02 14:16:00,
2015-06-02 07:21:00,50.0,46.6,29.97,NE,41,0.0,1.0,88,0.00,,,0.00,meteobridge,2015-06-02 14:21:00,
2015-06-02 07:26:00,50.2,46.8,29.98,NE,41,0.0,1.0,88,0.00,,,0.00,meteobridge,2015-06-02 14:26:00,
2015-06-02 07:31:00,50.4,46.9,29.98,NE,41,0.0,0.0,88,0.00,,,0.00,meteobridge,2015-06-02 14:31:00,
2015-06-02 07:36:00,50.7,47.3,29.98,NE,41,0.0,0.0,88,0.00,,,0.00,meteobridge,2015-06-02 14:36:00,
2015-06-02 07:41:00,51.1,47.7,29.98,NE,41,0.0,0.0,88,0.00,,,0.00,meteobridge,2015-06-02 14:41:00,
2015-06-02 07:46:00,51.4,47.7,29.98,NE,42,0.0,0.0,87,0.00,,,0.00,meteobridge,2015-06-02 14:46:00,
2015-06-02 07:51:00,51.6,47.8,29.98,NE,42,0.0,1.0,87,0.00,,,0.00,meteobridge,2015-06-02 14:51:00,
2015-06-02 07:56:00,52.2,48.0,29.98,NE,41,0.0,0.0,86,0.00,,,0.00,meteobridge,2015-06-02 14:56:00,
2015-06-02 08:01:00,52.3,48.0,29.98,NE,41,0.0,0.0,85,0.00,,,0.00,meteobridge,2015-06-02 15:01:00,
2015-06-02 08:06:00,52.9,48.2,29.98,NE,41,0.0,0.0,84,0.00,,,0.00,meteobridge,2015-06-02 15:06:00,
2015-06-02 08:11:00,53.2,48.2,29.98,NE,41,0.0,0.0,83,0.00,,,0.00,meteobridge,2015-06-02 15:11:00,
2015-06-02 08:16:00,53.6,47.7,29.98,NE,41,0.0,1.0,80,0.00,,,0.00,meteobridge,2015-06-02 15:16:00,
2015-06-02 08:21:00,54.1,48.4,29.98,NE,41,0.0,0.0,81,0.00,,,0.00,meteobridge,2015-06-02 15:21:00,
2015-06-02 08:26:00,54.7,48.9,29.98,NE,41,0.0,0.0,81,0.00,,,0.00,meteobridge,2015-06-02 15:26:00,
2015-06-02 08:31:00,55.0,48.6,29.99,NE,41,0.0,0.0,79,0.00,,,0.00,meteobridge,2015-06-02 15:31:00,
2015-06-02 08:36:00,55.6,48.9,29.99,NE,42,0.0,0.0,78,0.00,,,0.00,meteobridge,2015-06-02 15:36:00,
2015-06-02 08:41:00,56.1,48.9,29.99,NE,42,0.0,1.0,77,0.00,,,0.00,meteobridge,2015-06-02 15:41:00,
2015-06-02 08:46:00,56.5,48.7,29.99,ENE,68,0.0,1.0,75,0.00,,,0.00,meteobridge,2015-06-02 15:46:00,
2015-06-02 08:51:00,57.0,47.7,29.99,ENE,72,0.0,1.0,71,0.00,,,0.00,meteobridge,2015-06-02 15:51:00,
2015-06-02 08:56:00,57.6,47.8,29.99,ENE,71,0.0,1.0,70,0.00,,,0.00,meteobridge,2015-06-02 15:56:00,
2015-06-02 09:06:00,58.8,49.5,29.99,ENE,72,0.0,0.0,71,0.00,,,0.00,meteobridge,2015-06-02 16:06:00,
2015-06-02 09:11:00,59.9,49.6,29.99,ENE,72,0.0,1.0,69,0.00,,,0.00,meteobridge,2015-06-02 16:11:00,
2015-06-02 09:17:00,61.0,50.0,29.99,NNW,336,0.0,1.0,67,0.00,,,0.00,meteobridge,2015-06-02 16:17:00,
2015-06-02 09:22:00,61.7,50.2,30.00,NNW,336,0.0,0.0,66,0.00,,,0.00,meteobridge,2015-06-02 16:22:00,
2015-06-02 09:27:00,62.8,50.4,30.00,WSW,252,0.0,1.0,64,0.00,,,0.00,meteobridge,2015-06-02 16:27:00,